Terminal Aerodrome Forecast
Issued by NWS Amarillo, TX

Home | Current Version | Previous Version | Text Only | Print | Product List | Glossary On
Versions: 1 2 3 4 5 6 7 8 9 10 11 12 13 14 15 16 17 18
780
FTUS44 KAMA 280313 AAB
TAFGUY
TAF AMD
KGUY 280313Z 2803/2824 36030G40KT P6SM VCTS SCT025 BKN060CB
      TEMPO 2803/2804 VRB35G45KT 3SM TSRA BR OVC020CB
     FM280500 35016KT P6SM SCT060 BKN150
     FM281200 36010KT P6SM SKC=

USA.gov is the U.S. government's official web portal to all federal, state and local government web resources and services.